Location: Castellar
(41.6139°N, 2.0868°E)
Time: 21:06:41
(UTC+00:00)

Daily predictions for brighter satellites

Satellite Brightness Start Highest point End
(mag) Time Altitude Azimuth Time Altitude Azimuth Time Altitude Azimuth
SJ-6B 3.5 19:56:10 10° S 20:00:05 58° W 20:04:05 10° NNW
COSMOS 2428 4.1 20:03:51 10° SE 20:07:37 18° E 20:11:24 10° ENE
OAO 3 Rocket 4.0 20:03:38 10° WSW 20:08:07 37° S 20:12:38 10° ESE
Cosmos 1703 4.3 20:05:58 10° SSE 20:09:14 27° E 20:12:33 10° NNE
Cosmos 2322 4.4 20:05:05 10° SSE 20:10:09 34° ESE 20:15:14 10° NE
Resurs 1-3 3.6 20:05:48 10° SSE 20:10:11 86° ENE 20:14:36 10° NNW
Cosmos 1745 Rocket 4.1 20:04:42 10° SSE 20:10:42 57° E 20:16:50 10° NNE
Cosmos 2263 Rocket 3.4 20:11:17 10° NW 20:16:26 39° WSW 20:21:33 10° S
Cosmos 1461 3.9 20:14:21 10° NW 20:18:56 51° WSW 20:23:29 10° SSE
Cosmos 2219 Rocket 3.2 20:14:48 10° SSE 20:19:19 26° ESE 20:23:51 10° NE
Cosmos 1818 3.6 20:15:13 10° SSW 20:20:38 85° ESE 20:26:07 10° NE
ATLAS CENTAUR R/B 3.5 20:19:49 10° NNE 20:21:25 12° NE 20:23:00 10° ENE
Cosmos 2360 Rocket 2.2 20:16:01 10° SSW 20:21:38 80° ESE 20:27:20 10° NNE
USA 215 3.8 20:20:06 10° ENE 20:26:00 35° SE 20:31:52 10° SSW
Atlas Centaur 2 3.3 20:24:55 10° SW 20:29:42 29° S 20:34:39 13° ESE
Landsat 7 4.5 20:26:08 12° SE 20:30:10 40° ENE 20:34:36 10° N
Cosmos 1825 Rocket 3.9 20:26:58 10° SSE 20:31:13 47° E 20:35:31 10° NNE
Cosmos 2333 Rocket 2.8 20:27:52 10° S 20:33:02 37° ESE 20:38:14 10° NE
CZ-2C R/B 3.9 20:32:03 10° N 20:37:09 44° WNW 20:42:07 10° SW
Delta 2 Rocket 3.8 20:36:38 10° WSW 20:39:39 29° S 20:41:16 19° SE
Cosmos 1812 Rocket 3.8 20:36:38 10° NNW 20:40:58 67° W 20:45:14 10° S
GEOS 3 Rocket 3.7 20:36:21 10° NE 20:41:41 58° ESE 20:46:58 10° SSW
SL-16 R/B 4.2 20:37:07 10° WSW 20:42:10 33° WNW 20:47:16 10° N
Spot 2 Rocket 3.7 20:39:25 14° SSE 20:43:43 61° ENE 20:48:45 10° N
IGS 5A 3.7 20:42:27 16° SSE 20:45:33 55° ENE 20:49:37 10° N
Cosmos 1315 Rocket 4.4 20:44:38 10° NNE 20:47:52 22° ENE 20:49:47 16° ESE
OAO 2 Rocket 3.9 20:44:57 10° WSW 20:49:52 40° S 20:53:38 16° ESE
ATLAS 5 CENTAUR R/B 2.3 20:46:19 10° SW 20:50:19 55° NW 20:54:49 10° NNE
Meteor 2-10 Rocket 4.0 20:49:18 10° NNW 20:54:20 59° W 20:59:33 10° S
Cosmos 2278 Rocket 3.9 20:50:36 10° N 20:54:52 21° NE 20:58:50 11° E
Cosmos 1709 Rocket 4.0 20:49:23 10° S 20:55:37 72° E 21:01:57 10° NNE
Cosmos 1844 Rocket 2.7 20:51:53 10° NNW 20:57:30 88° WSW 21:01:37 19° SSE
Nadezhda 1 Rocket 4.4 20:52:49 10° NNW 20:59:10 66° W 21:05:27 10° S
Meteor 1-11 4.3 20:56:51 12° S 21:02:02 63° E 21:07:40 10° NNE
SPOT 1/Viking Rocket 3.5 21:00:43 19° SSE 21:04:22 72° ENE 21:09:32 10° N
Cosmos-2242 3.1 21:04:31 10° N 21:08:53 77° W 21:11:57 19° S
Cosmos 1400 Rocket 2.9 21:05:36 10° NNW 21:09:33 73° W 21:12:01 21° S
Cosmos 2221 3.9 21:10:12 10° NNE 21:13:50 25° ENE 21:15:14 21° ESE
Resurs 01 Rocket 3.3 21:10:01 10° SSW 21:13:51 29° W 21:17:43 10° NW
Terra 2.5 21:14:58 25° ESE 21:17:12 40° ENE 21:21:38 10° N
SAR-Lupe-2 3.6 21:17:02 10° N 21:20:38 80° WNW 21:22:58 21° SSW
CZ-4B DEB 4.3 21:23:34 39° S 21:24:42 85° W 21:28:04 10° NNW
Cosmos 2058 4.1 21:27:38 24° E 21:28:00 25° E 21:31:23 10° NE
Cosmos 1455 4.5 21:29:19 10° NW 21:32:14 21° W 21:35:08 10° SW
Alouette 2 Rocket 4.4 21:29:23 10° NNW 21:33:19 51° W 21:37:00 19° SSW
NOSS 3-3 (A) 4.0 21:31:36 10° SW 21:37:22 76° NW 21:43:54 10° NNE
NOSS 3-3 (C) 4.0 21:31:42 10° SW 21:37:29 77° NW 21:44:01 10° NNE
Cosmos 1825 4.5 21:39:57 12° ENE 21:39:57 12° ENE 21:40:57 10° ENE
Cosmos 1980 3.9 21:41:49 33° SSE 21:43:56 48° ESE 21:49:21 10° NE
Cosmos 1538 Rocket 4.4 21:39:17 10° SSW 21:44:36 67° WNW 21:49:56 10° NNE
Cosmos 1076 Rocket 4.1 21:47:32 36° ESE 21:47:56 37° E 21:51:52 10° NNE
COSMOS 2428 3.1 21:45:43 10° SW 21:51:18 62° WNW 21:56:57 10° NNE
Cosmos 2154 Rocket 4.4 21:49:47 33° SE 21:52:02 47° E 21:57:56 10° NNE
Cosmos 2084 3.4 21:50:31 10° NW 21:55:00 90° ESE 21:56:03 52° SE
DELTA 2 R/B (1) 3.5 21:51:40 10° WSW 21:57:08 58° SSE 22:01:15 18° E
Cosmos 2074 Rocket 3.9 21:54:31 29° S 21:57:55 85° E 22:04:10 10° N
ATLAS 2AS CENTAUR R/B 3.6 21:51:03 10° NNW 21:58:15 44° NE 22:02:39 21° ESE
Cosmos 2181 Rocket 4.4 21:52:06 10° NNW 21:58:18 59° W 22:02:02 24° SSW
ERS-1 Rocket 3.6 21:56:49 28° SSW 21:59:13 49° W 22:04:07 10° NNW
Genesis I 3.6 22:00:58 47° E 22:00:58 47° E 22:04:11 10° NE
ATLAS CENTAUR R/B 1.0 21:57:06 10° NW 22:00:45 70° WSW 22:00:56 68° SW
BREEZE-M DEB (TANK) 4.2 21:56:42 10° WNW 22:01:03 25° N 22:03:23 10° NE
Thor Agena Rocket 4.3 21:56:31 10° NNE 22:01:05 33° E 22:01:29 32° ESE
Cosmos 2237 Rocket 2.2 21:59:39 36° S 22:01:55 64° ESE 22:07:35 10° NNE
Cosmos 1869 3.2 21:57:59 10° N 22:02:00 84° E 22:02:34 65° SSE
Cosmos 2219 Rocket 3.2 21:57:39 10° SW 22:02:58 44° WNW 22:08:20 10° NNE
SPOT 5 3.5 22:02:26 30° SSW 22:04:35 50° W 22:09:18 10° NNW
Cosmos 1842 Rocket 3.6 22:01:14 10° NNW 22:05:34 73° W 22:06:34 50° SSW
Cosmos 2344 3.6 22:05:03 28° S 22:08:56 55° ESE 22:16:26 10° NE
USA 215 3.6 22:02:45 10° NE 22:09:15 68° NW 22:15:44 10° WSW
Cosmos 158 Rocket 3.8 22:09:32 52° SSE 22:10:25 63° ESE 22:15:16 10° NNE
Cosmos 2112 Rocket 4.0 22:12:33 48° SSE 22:13:52 64° ESE 22:19:11 10° NNE
Gblst 52 Del rocket 4.3 22:08:35 10° NW 22:14:25 83° NE 22:17:16 35° ESE
Elektron 1 4.0 22:15:07 76° W 22:15:18 80° NW 22:19:43 10° NE
Cosmos 2333 Rocket 3.8 22:12:11 10° WSW 22:17:18 33° WNW 22:22:28 10° N
Atlas Centaur 2 3.7 22:13:08 10° WSW 22:17:13 24° SSW 22:17:13 24° SSW
ALOS 2 4.4 22:18:57 19° E 22:19:41 20° ENE 22:22:51 10° NNE
Cosmos 2327 Rocket 4.4 22:17:25 39° S 22:19:56 86° E 22:26:06 10° N
Cosmos 1315 Rocket 4.4 22:20:53 10° NNW 22:24:24 28° W 22:25:29 24° WSW
Iridium 2 4.2 22:22:24 10° N 22:25:48 49° ENE 22:25:48 49° ENE
Cosmos 1892 2.9 22:26:26 60° W 22:26:37 61° W 22:30:24 10° N
NOSS 0 Rocket 4.2 22:22:19 17° SW 22:27:06 66° WNW 22:33:14 10° NNE
EO 1 Del DPAF 4.0 22:27:01 10° NNE 22:29:55 42° ENE 22:29:55 42° ENE
Cosmos 2056 Rocket 4.1 22:25:51 10° N 22:31:08 49° ENE 22:32:26 41° ESE
Cosmos 1295 Rocket 4.4 22:29:34 46° SSE 22:31:27 76° E 22:37:34 10° N
GP-B 4.5 22:29:33 10° NNE 22:33:05 26° E 22:33:05 26° E
Cosmos 1408 2.9 22:37:57 61° NNW 22:37:57 61° NNW 22:41:01 10° N
Cosmos 1606 4.2 22:34:27 10° NNE 22:37:25 27° ENE 22:37:25 27° ENE
Cosmos 2278 Rocket 2.3 22:33:48 10° NNW 22:39:25 64° WSW 22:40:40 50° SSW
Cosmos 44 3.6 22:40:50 45° ENE 22:40:50 45° ENE 22:44:13 10° NE
USA 267 3.4 22:36:39 31° ESE 22:40:01 72° NE 22:46:34 10° NW
Cosmos 1680 Rocket 3.9 22:39:45 34° SW 22:41:56 62° WNW 22:47:14 10° NNE
Cosmos 1943 Rocket 4.1 22:38:13 10° N 22:42:29 21° NE 22:45:30 14° E
MOS 1-B Rocket 4.2 22:36:59 10° NNE 22:44:29 75° ESE 22:46:38 46° S
SL-16 R/B 2.3 22:46:35 53° SE 22:47:01 54° ESE 22:52:33 10° NNE
Cosmos 371 Rocket 4.5 22:46:07 10° N 22:50:28 32° ENE 22:51:21 30° E
Cosmos 2221 4.0 22:47:39 10° NNW 22:51:20 27° W 22:52:05 25° WSW
Lacrosse 5 rocket 4.3 22:52:41 10° N 22:54:21 12° NNE 22:55:58 10° NE
Terra 3.6 22:53:51 20° WSW 22:55:04 22° W 22:58:42 10° NW
Cosmos 1766 Rocket 3.7 23:01:32 64° ENE 23:01:32 64° ENE 23:05:33 10° NNE
Cosmos 1328 Rocket 4.1 23:02:12 10° N 23:06:06 47° ENE 23:06:06 47° ENE
Okean 3 Rocket 3.5 23:07:35 83° N 23:07:35 83° N 23:11:53 10° N
IRIDIUM 103 4.3 23:08:14 61° ESE 23:08:36 63° E 23:13:45 10° N
Meteor 2-3 Rocket 3.9 23:12:54 53° ESE 23:13:25 55° E 23:18:58 10° NNE
Cosmos 1825 3.3 23:14:45 38° WNW 23:14:45 38° WNW 23:17:58 10° N
Cosmos 1340 3.8 23:15:33 38° NE 23:15:33 38° NE 23:18:06 10° NNE
Cosmos 864 Rocket 4.5 23:16:19 57° SSE 23:17:28 69° E 23:23:43 10° NNE
Cosmos 2218 Rocket 4.0 23:17:43 58° SSE 23:19:02 78° E 23:25:21 10° N
Cosmos 1624 Rocket 4.1 23:16:09 10° NNW 23:21:17 59° WSW 23:21:30 58° WSW
NOSS 3-4 (A) 3.9 23:14:29 10° NW 23:21:32 64° WSW 23:23:28 49° S
NOSS 3-4 (C) 3.9 23:14:35 10° NW 23:21:39 65° WSW 23:23:36 49° S
Cosmos 2366 rocket 3.9 23:21:57 59° SSE 23:23:15 80° E 23:29:37 10° N
IRIDIUM 106 4.1 23:26:31 78° S 23:26:52 88° WSW 23:32:08 10° N
Meteor 1-26 Rocket 4.4 23:21:23 10° N 23:27:21 63° ENE 23:28:23 54° ESE
Cosmos 2369 Rocket 3.5 23:26:06 10° N 23:31:09 33° ENE 23:33:18 25° E
Cosmos 1959 Rocket 4.4 23:30:32 61° SSW 23:31:43 87° W 23:37:56 10° N
Cosmos 2151 4.2 23:32:17 33° W 23:32:27 33° WNW 23:36:21 10° N
Helios 1A 3.6 23:34:08 50° NE 23:34:08 50° NE 23:37:47 10° N
Cosmos 1933 3.9 23:32:19 10° N 23:35:34 55° NNW 23:35:34 55° NNW
COSMOS 2455 3.3 23:33:58 10° NNW 23:39:57 57° ENE 23:41:47 41° ESE
DELTA 2 R/B (1) 3.9 23:37:49 10° W 23:42:01 51° WSW 23:42:01 51° WSW
Cosmos 2237 Rocket 4.3 23:42:13 10° W 23:46:28 21° NW 23:50:45 10° N
ATLAS 2AS CENTAUR R/B 3.1 23:42:19 10° NW 23:49:13 44° WSW 23:50:03 43° SW
Cosmos 1408 Rocket 4.0 23:52:07 55° WNW 23:52:07 55° WNW 23:56:09 10° N
Cosmos 1151 Rocket 3.8 23:49:01 10° NNW 23:52:34 42° WNW 23:52:34 42° WNW
Cosmos 1782 3.5 23:49:58 10° N 23:53:04 50° NNE 23:53:04 50° NNE
Cosmos 1346 Rocket 3.5 23:55:57 51° N 23:55:57 51° N 23:59:00 10° N
ALOS 2 3.6 23:56:20 37° WNW 23:56:20 37° WNW 23:59:51 10° NNW
